Regional Weather Roundup
Issued by NWS

Home | Current Version | Previous Version | Graphics & Text | Print | Product List | Glossary Off
Versions: 1 2 3 4 5 6 7 8 9 10 11 12 13 14 15 16 17 18 19 20 21 22 23 24 25 26 27 28 29 30 31 32 33 34 35 36 37 38 39 40 41 42 43 44 45 46 47 48 49 50

000
ASUS43 KLSX 240707
RWRMO

WEATHER SUMMARY FOR MISSOURI
NATIONAL WEATHER SERVICE SPRINGFIELD MO
200 AM CDT TUE MAY 24 2016

NOTE: "FAIR" INDICATES FEW OR NO CLOUDS BELOW 12,000 FEET WITH NO
       SIGNIFICANT WEATHER AND/OR OBSTRUCTIONS TO VISIBILITY.
       CURRENT SKY AND/OR WEATHER CONDITIONS ARE NOT AVAILABLE FOR
       CHILLICOTHE AND FARMINGTON.

MOZ001>031-035>038-043-044-053-054-240800-
...NORTHERN AND WESTERN MISSOURI...

CITY           SKY/WX    TMP DP  RH WIND       PRES   REMARKS
KANSAS CTY INT CLEAR     63  60  90 S12       29.88F
KANSAS C DTWN  CLEAR     66  60  81 S13       29.88F
LEE`S SUMMIT   PTCLDY    64  60  87 S13       29.90F
ST JOSEPH      CLEAR     64  61  90 S3        29.88S
CHILLICOTHE      N/A     67  61  81 S5        29.92S
KIRKSVILLE     CLOUDY    66  58  75 S8        29.93S

$$
MOZ066>068-077>081-088>096-101>105-240800-
...SOUTHWEST MISSOURI...

CITY           SKY/WX    TMP DP  RH WIND       PRES   REMARKS
SPRINGFIELD    MOCLDY    63  60  90 SE6       29.94F
JOPLIN         CLOUDY    65  61  87 S8        29.91F

$$
MOZ032>034-039>042-045>050-055>058-069>072-240800-
...CENTRAL MISSOURI...

CITY           SKY/WX    TMP DP  RH WIND       PRES   REMARKS
COLUMBIA       CLOUDY    66  59  78 S5        29.95S
JEFFERSON CITY CLOUDY    66  59  78 SE6       29.94S
ROLLA          CLOUDY    66  58  75 S5        29.95R
SEDALIA        CLOUDY    64  60  87 SW3       29.95S
WHITEMAN AFB   CLEAR     61  61 100 S6        29.92F
WARRENSBURG    PTCLDY    59  57  94 SE3       29.91F
OSAGE BEACH      N/A    N/A N/A N/A S3          N/A

$$
MOZ051-052-059>065-240800-
...EAST CENTRAL MISSOURI...

CITY           SKY/WX    TMP DP  RH WIND       PRES   REMARKS
ST LOUIS INTL  MOCLDY    70  53  54 S3        29.97R
SPIRIT OF STL  CLOUDY    63  58  83 CALM      29.96R
ST CHARLES     CLOUDY    62  57  83 N3        29.96R

$$
MOZ072>076-082>087-097>100-106>115-240800-
...SOUTH CENTRAL AND SOUTHEAST MISSOURI...

CITY           SKY/WX    TMP DP  RH WIND       PRES   REMARKS
CAPE GIRARDEAU PTCLDY    62  58  86 NE3       29.97F
FARMINGTON     CLOUDY    63  57  81 S5        29.99S
POPLAR BLUFF   CLOUDY    66  62  87 CALM      29.97F
WEST PLAINS    PTCLDY    64  57  78 CALM      30.00R

$$


USA.gov is the U.S. government's official web portal to all federal, state and local government web resources and services.